This is the latest recevied weather packets stored in our database for station/object VE7GEL. If no packets are shown the sender has not sent any weather packets the latest 10 day(s).
| Time | Temp. | Humidity | Pressure | Rain* | Wind** | Luminosity | Snow |
|---|---|---|---|---|---|---|---|
| 1777756860 | 17.22° C | 67% | 1016.3 hPa | 0 mm | - | 59 W/m² | - |
| 1777756503 | 17.22° C | 65% | 1016.7 hPa | 0 mm | - | 58 W/m² | - |
| 1777755956 | 17.22° C | 65% | 1016.5 hPa | 0 mm | - | 56 W/m² | - |
| 1777755057 | 16.67° C | 66% | 1016.6 hPa | 0 mm | - | 55 W/m² | - |
| 1777754156 | 16.67° C | 70% | 1016.7 hPa | 0 mm | - | 53 W/m² | - |
| 1777753260 | 16.11° C | 70% | 1016.9 hPa | 0 mm | - | 51 W/m² | - |
| 1777752902 | 16.11° C | 69% | 1017.2 hPa | 0 mm | - | 50 W/m² | - |
| 1777752355 | 16.11° C | 71% | 1017 hPa | 0 mm | - | 48 W/m² | - |
| 1777752002 | 16.11° C | 69% | 1017.3 hPa | 0 mm | - | 47 W/m² | - |
| 1777751869 | 15.56° C | 72% | 1017.1 hPa | 0 mm | - | 46 W/m² | - |
| 1777750552 | 15.56° C | 72% | 1017.2 hPa | 0 mm | - | 44 W/m² | - |
| 1777749652 | 15° C | 76% | 1017.2 hPa | 0 mm | - | 41 W/m² | - |
| 1777749302 | 14.44° C | 79% | 1017.6 hPa | 0 mm | - | 40 W/m² | - |
| 1777748752 | 13.89° C | 81% | 1017.4 hPa | 0 mm | - | 39 W/m² | - |
| 1777747851 | 12.78° C | 86% | 1017.6 hPa | 0 mm | - | 37 W/m² | - |
| 1777747502 | 12.22° C | 89% | 1017.9 hPa | 0 mm | - | 36 W/m² | - |
| 1777746950 | 12.22° C | 90% | 1017.6 hPa | 0 mm | - | 35 W/m² | - |
| 1777746052 | 12.22° C | 88% | 1017.7 hPa | 0 mm | - | 33 W/m² | - |
| 1777745148 | 12.22° C | 87% | 1017.7 hPa | 0 mm | - | 31 W/m² | - |
| 1777744247 | 12.22° C | 86% | 1017.8 hPa | 0 mm | - | 30 W/m² | - |
| 1777743902 | 12.22° C | 88% | 1018.2 hPa | 0 mm | - | 29 W/m² | - |
| 1777743347 | 12.22° C | 88% | 1017.8 hPa | 0 mm | - | 28 W/m² | - |
| 1777742446 | 11.67° C | 92% | 1017.8 hPa | 0 mm | - | 26 W/m² | - |
| 1777742102 | 11.67° C | 92% | 1018.1 hPa | 0 mm | - | 26 W/m² | - |
| 1777741545 | 11.11° C | 93% | 1017.8 hPa | 0 mm | - | 25 W/m² | - |
* Rain latest hour (hover to see other rain measurements)
** Current wind speed in m/s (hover to see current wind gust speed)